Regional Weather Roundup
Issued by NWS Sioux Falls, SD

Home | Current Version | Previous Version | Graphics & Text | Print | Product List | Glossary On
Versions: 1 2 3 4 5 6 7 8 9 10 11 12 13 14 15 16 17 18 19 20 21 22 23 24 25 26 27 28 29 30 31 32 33 34 35 36 37 38 39 40 41 42 43 44 45 46 47 48 49 50
000
ASUS43 KFSD 281510
RWRFSD

WEATHER ROUNDUP FOR SE SOUTH DAKOTA/SW MINNESOTA/NW IOWA
NATIONAL WEATHER SERVICE SIOUX FALLS SD
1000 AM CDT MON JUL 28 2014

NOTE: "FAIR" INDICATES FEW OR NO CLOUDS BELOW 12,000 FEET WITH NO
SIGNIFICANT WEATHER AND OR OBSTRUCTIONS TO VISIBILITY.


SDZ038>040-050-052>070-281600-
SOUTHEAST SOUTH DAKOTA

CITY           SKY/WX    TMP DP  RH WIND       PRES   REMARKS
CHAMBERLAIN    MOSUNNY   65  54  68 N7        30.34R
HURON          SUNNY     64  57  78 N10       30.30F
MADISON        PTSUNNY   63  61  94 N12       30.30S
MITCHELL       SUNNY     65  58  78 N10       30.31F
SIOUX FALLS    PTSUNNY   67  58  72 N14       30.28S
WINNER         FAIR      67  52  58 CALM      30.34S
YANKTON        SUNNY     66  55  68 NW15      30.29S
$$

MNZ071-072-080-081-089-090-097-098-281600-
SOUTHWEST MINNESOTA

CITY           SKY/WX    TMP DP  RH WIND       PRES   REMARKS
FAIRMONT       CLOUDY    66  57  72 N8        30.24S
JACKSON        CLOUDY    64  57  77 N5        30.25S
LUVERNE        CLOUDY    64  55  72 N9        30.28R
MARSHALL       CLOUDY    64  57  77 N9        30.26S
MONTEVIDEO     PTSUNNY   66  61  82 N6        30.27R
PIPESTONE      PTSUNNY   64  57  77 NE12      30.28S
REDWOOD FALLS  CLOUDY    67  61  81 N7        30.24S
TRACY          CLOUDY    65  61  86 CALM      30.27S
WINDOM         PTSUNNY   66  59  77 NW10      30.25S
WORTHINGTON    CLOUDY    63  57  82 N8        30.27S
$$

IAZ001>003-012>014-020>022-031-032-NEZ013-014-SDZ071-281600-
NORTHWEST IOWA

CITY           SKY/WX    TMP DP  RH WIND       PRES   REMARKS
CHEROKEE       CLOUDY    62  60  95 N6        30.26S
DENISON        CLOUDY    63  61  94 NW6       30.25R
ESTHERVILLE    PTSUNNY   65  58  78 N10       30.25R
LE MARS        CLOUDY    66  59  77 N9        30.27S
ORANGE CITY    PTSUNNY   66  57  72 NE8       30.27S
SHELDON        CLOUDY    64  59  82 N10       30.26S
SIOUX CITY     PTSUNNY   69  58  67 N13G18    30.27R
SPENCER        CLOUDY    65  59  81 N9        30.25S
STORM LAKE     CLOUDY    61  61 100 N8G15     30.26R
$$

ABBREVIATIONS USED IN REMARKS
   TC - TEMPERATURE IN CELSIUS
  WCI - WIND CHILL INDEX
   HX - HEAT INDEX
  VSB - VISIBILITY




USA.gov is the U.S. government's official web portal to all federal, state and local government web resources and services.